[[{"header":{"parameterUnit":"m.s-1","parameterCategory":2,"la1":30.2991,"la2":30.254,"lo1":-89.0895,"lo2":-89.0444,"dy":0.0017,"dx":0.0017,"nx":28,"ny":28,"refTime":"2024-03-25T09:00:00:Z","depth":"0","parameterNumber":2,"parameterNumberName":"U-component_of_CURRENTS"},"data":[0,0,0,0,0,0,0,0,0,0,0,0,0,0,0,0,0,0,0,0,0,0,0,0,0,0,0,0,0,0,0,0,0,0,0,0,0,0,0,0,0,0,0,0,0,0,0,0,0,0,0,0,0,0,0,0,0,0,0.3601,0.3601,0,0.364,0.364,0.3641,0.3629,0.3628,0.3628,0.3627,0.3621,0.3622,0.3622,0,0,0,0,0,0,0,0,0,0,0,0,0,0.3561,0.3561,0.36,0.3601,0.3602,0.364,0.364,0.3641,0.3629,0.3628,0.3628,0.3627,0.3621,0.3622,0.3622,0,0,0,0,0,0,0,0,0,0,0,0,0,0.3585,0.3561,0.36,0.3602,0.3603,0.364,0.364,0.3641,0.3629,0.3628,0.3627,0.3627,0.3621,0.3621,0.3622,0.3646,0,0,0.3624,0.3624,0,0,0,0,0,0,0,0,0.3584,0.3586,0.3601,0.3602,0.3603,0.363,0.3624,0.3641,0.363,0.3617,0.3627,0.3626,0.3622,0.3622,0.363,0.3646,0.3645,0.3624,0.3625,0.3625,0.3625,0,0,0,0,0,0,0,0.3582,0.3585,0.3614,0.3602,0.3603,0.3617,0.3618,0.3628,0.3622,0.3618,0.3618,0.3626,0.3622,0.363,0.363,0.3645,0.3624,0.3625,0.3625,0.3626,0.3686,0.3687,0,0,0,0,0,0,0.3579,0.3583,0.3613,0.3616,0.3593,0.3618,0.362,0.3621,0.3623,0.3624,0.3626,0.3625,0.3629,0.3629,0.3629,0.3628,0.3625,0.3626,0.3626,0.3685,0.3686,0.3688,0,0,0,0,0,0,0.3578,0.3581,0.3612,0.3602,0.3607,0.3619,0.3621,0.3622,0.3633,0.363,0.3629,0.3636,0.3628,0.3629,0.3642,0.3629,0.3626,0.3626,0.3683,0.3685,0.3687,0.3644,0,0,0,0,0,0,0.3577,0.3581,0.3583,0.3602,0.3608,0.3628,0.3622,0.3624,0.364,0.3638,0.3638,0.3636,0.3627,0.3641,0.3642,0.3629,0.3627,0.3682,0.3684,0.3686,0.3644,0.3644,0.3644,0,0,0,0,0,0.3575,0.3584,0.3582,0.3586,0.3609,0.3629,0.3633,0.3638,0.3641,0.3644,0.365,0.3636,0.3656,0.3642,0.3644,0.3631,0.3681,0.3684,0.3686,0.3644,0.3644,0.3644,0,0,0,0,0,0,0.3575,0.3584,0.3583,0.3595,0.3608,0.3627,0.3636,0.3645,0.3655,0.3652,0.3651,0.365,0.3657,0.3665,0.365,0.3661,0.3667,0.367,0.3634,0.3635,0.3635,0.366,0.3628,0,0,0,0,0,0.3575,0.3578,0.3592,0.3603,0.3608,0.3625,0.3636,0.3639,0.3652,0.3655,0.3648,0.3657,0.3673,0.367,0.368,0.3686,0.3711,0.3683,0.3683,0.3683,0.3709,0.374,0.3745,0.3697,0.3696,0.3696,0,0,0.3576,0.3587,0.3586,0.3603,0.3612,0.3624,0.3628,0.3643,0.3653,0.3654,0.3654,0.3658,0.3679,0.368,0.3684,0.368,0.3707,0.3687,0.3686,0.3713,0.3743,0.3748,0.3752,0.3698,0.3698,0.3698,0,0,0.3591,0.359,0.3597,0.3605,0.3622,0.3629,0.3635,0.3644,0.3646,0.3663,0.3661,0.3669,0.3682,0.3684,0.3696,0.3715,0.3713,0.3706,0.3714,0.3742,0.3746,0.375,0.3765,0.3771,0.3698,0.3698,0.3698,0,0.3595,0.3606,0.3605,0.3618,0.3627,0.3632,0.3644,0.3653,0.3662,0.3665,0.3661,0.3689,0.3694,0.371,0.3713,0.3713,0.3725,0.3699,0.374,0.3744,0.3749,0.3764,0.3771,0.3696,0.3696,0.3696,0.3696,0,0.3615,0.3622,0.363,0.364,0.3646,0.3659,0.3664,0.3662,0.3668,0.3674,0.3688,0.3697,0.3715,0.3708,0.372,0.3742,0.3738,0.3736,0.373,0.375,0.3766,0.3773,0.3693,0.3694,0.3694,0.3695,0,0,0.3635,0.3642,0.3644,0.365,0.3657,0.3668,0.3673,0.3685,0.3694,0.3695,0.3707,0.3733,0.3727,0.3744,0.3736,0.3759,0.3788,0.3758,0.3761,0.3759,0.3839,0.3844,0.3852,0.378,0.3781,0.3783,0.3827,0,0.3655,0.368,0.3673,0.369,0.3704,0.3694,0.37,0.3706,0.371,0.3712,0.3726,0.3738,0.3742,0.374,0.3764,0.3787,0.3811,0.3776,0.3835,0.3838,0.3827,0.3863,0.376,0.3793,0.3835,0.3836,0.3837,0,0.3686,0.3697,0.3716,0.3719,0.3721,0.3723,0.3728,0.3732,0.3734,0.3737,0.3744,0.3748,0.3775,0.3777,0.3839,0.3811,0.3837,0.3855,0.3856,0.3891,0.3859,0.3787,0.3806,0.362,0.3849,0.3848,0.3847,0,0.3721,0.373,0.3745,0.3747,0.3747,0.3746,0.374,0.374,0.374,0.3745,0.3745,0.3773,0.3781,0.3831,0.3865,0.3855,0.393,0.3918,0.3948,0.3947,0.3893,0.3886,0.3734,0.3982,0.3982,0.3982,0.3981,0,0.3758,0.3771,0.3759,0.3771,0.3781,0.3765,0.3769,0.3768,0.3755,0.3751,0.3754,0.3759,0.3799,0.3831,0.3873,0.3935,0.3939,0.3976,0.3972,0.3874,0.3865,0.3731,0.3621,0.3983,0.3983,0.3983,0.3982,0,0.3803,0.3794,0.3816,0.3808,0.3802,0.3809,0.3781,0.378,0.3764,0.3756,0.3755,0.3759,0.3806,0.3842,0.3912,0.3942,0.3843,0.4018,0.3896,0.388,0.3759,0.3651,0.3306,0.3223,0.4079,0.4079,0.408,0,0.3844,0.3854,0.3848,0.3851,0.3845,0.3838,0.3828,0.3797,0.3782,0.3757,0.3753,0.3778,0.3806,0.39,0.3958,0.4036,0.3815,0.3965,0.3953,0.3755,0.3632,0.3333,0.3268,0.3847,0.3846,0.3844,0.3843,0,0.3909,0.3893,0.3895,0.3904,0.3894,0.3874,0.3848,0.383,0.3782,0.3766,0.3751,0.3772,0.3851,0.388,0.3962,0.3989,0.3687,0.3947,0.3764,0.3472,0.3112,0.303,0.38,0.3833,0.3834,0.3835,0.3835,0.3836,0.3951,0.3959,0.3948,0.3951,0.394,0.3901,0.3864,0.3818,0.3778,0.37,0.3743,0.3747,0.3763,0.3889,0.3869,0.3719,0.3646,0.3616,0.3513,0.3235,0.3105,0.3863,0.3882,0.3883,0.3884,0.3885,0.3886,0,0.3993,0.3982,0.3995,0.3972,0.3955,0.3936,0.3869,0.3795,0.372,0.3699,0.3672,0.3644,0.3628,0.3593,0.3498,0.3321,0.3099,0.3133,0.2681,0.2664,0.3379,0.3327,0.3199,0.3199,0.3199,0.3199,0.3199,0.32,0.4011,0.4011,0.4004,0.3983,0.3963,0.3898,0.3845,0.3723,0.3683,0.3517,0.3461,0.3422,0.3345,0.3043,0.2803,0.2738,0.2393,0.2197,0.2157,0.2662,0.2697,0.273,0.2655,0.2388,0.2387,0.1344,0.1335,0.1329]},{"header":{"parameterUnit":"m.s-1","parameterCategory":2,"la1":30.2991,"la2":30.254,"lo1":-89.0895,"lo2":-89.0444,"dy":0.0017,"dx":0.0017,"nx":28,"ny":28,"refTime":"2024-03-25T09:00:00:Z","depth":"0","parameterNumber":3,"parameterNumberName":"V-component_of_CURRENTS"},"data":[0,0,0,0,0,0,0,0,0,0,0,0,0,0,0,0,0,0,0,0,0,0,0,0,0,0,0,0,0,0,0,0,0,0,0,0,0,0,0,0,0,0,0,0,0,0,0,0,0,0,0,0,0,0,0,0,0,0,-0.054,-0.0541,0,-0.0684,-0.0686,-0.0688,-0.0799,-0.08,-0.08,-0.0801,-0.0923,-0.0926,-0.0928,0,0,0,0,0,0,0,0,0,0,0,0,0,-0.0395,-0.0397,-0.0539,-0.0541,-0.0542,-0.0683,-0.0686,-0.0688,-0.0799,-0.08,-0.0801,-0.0801,-0.0922,-0.0925,-0.0928,0,0,0,0,0,0,0,0,0,0,0,0,0,-0.0493,-0.0398,-0.0539,-0.0613,-0.0621,-0.0683,-0.0686,-0.0689,-0.0798,-0.08,-0.0801,-0.0802,-0.0921,-0.0925,-0.0929,-0.0928,0,0,-0.094,-0.0942,0,0,0,0,0,0,0,0,-0.0487,-0.0499,-0.06,-0.0608,-0.0617,-0.0722,-0.068,-0.0767,-0.0798,-0.0734,-0.0801,-0.0802,-0.0851,-0.0861,-0.0889,-0.0934,-0.0939,-0.0941,-0.0943,-0.0944,-0.0946,0,0,0,0,0,0,0,-0.048,-0.0493,-0.0599,-0.0602,-0.0612,-0.0651,-0.0666,-0.0697,-0.0786,-0.0739,-0.0747,-0.0758,-0.0856,-0.0886,-0.0893,-0.0941,-0.094,-0.0944,-0.0946,-0.0948,-0.0908,-0.0905,0,0,0,0,0,0,-0.0454,-0.0487,-0.0595,-0.0603,-0.0551,-0.0652,-0.0669,-0.0689,-0.0786,-0.0801,-0.0757,-0.0763,-0.0879,-0.0889,-0.0898,-0.0845,-0.0944,-0.0948,-0.095,-0.0911,-0.0907,-0.0904,0,0,0,0,0,0,-0.0451,-0.0463,-0.0589,-0.0545,-0.0564,-0.0652,-0.0675,-0.0691,-0.0716,-0.0799,-0.0815,-0.0764,-0.088,-0.0892,-0.0896,-0.0853,-0.095,-0.0953,-0.0915,-0.091,-0.0906,-0.0777,0,0,0,0,0,0,-0.0446,-0.0461,-0.0459,-0.0544,-0.0565,-0.0601,-0.0674,-0.0693,-0.072,-0.0729,-0.081,-0.0823,-0.0882,-0.089,-0.09,-0.086,-0.0956,-0.0919,-0.0913,-0.0907,-0.0785,-0.0768,-0.0753,0,0,0,0,0,-0.0441,-0.0432,-0.0459,-0.0471,-0.0563,-0.0599,-0.0613,-0.0682,-0.0719,-0.0712,-0.0759,-0.082,-0.0857,-0.089,-0.0903,-0.0863,-0.0922,-0.0915,-0.0908,-0.0792,-0.0771,-0.0754,0,0,0,0,0,0,-0.0368,-0.0445,-0.0476,-0.0492,-0.0529,-0.0616,-0.062,-0.0665,-0.0702,-0.0711,-0.0791,-0.0805,-0.0787,-0.0832,-0.0867,-0.0827,-0.0894,-0.0889,-0.0802,-0.0783,-0.0768,-0.0761,-0.0959,0,0,0,0,0,-0.0348,-0.0362,-0.0435,-0.0439,-0.0457,-0.0533,-0.0555,-0.0601,-0.0648,-0.0668,-0.072,-0.0757,-0.0766,-0.0781,-0.0803,-0.079,-0.0801,-0.0765,-0.0749,-0.0735,-0.0733,-0.0687,-0.0667,-0.0879,-0.0879,-0.088,0,0,-0.0319,-0.0362,-0.037,-0.0423,-0.0464,-0.0474,-0.055,-0.0573,-0.0576,-0.0671,-0.0677,-0.0705,-0.0746,-0.0728,-0.0724,-0.0764,-0.0674,-0.0726,-0.0715,-0.072,-0.0677,-0.0657,-0.0638,-0.0874,-0.0875,-0.0876,0,0,-0.0264,-0.0305,-0.0299,-0.0325,-0.0373,-0.0418,-0.0414,-0.0486,-0.051,-0.0515,-0.0569,-0.0563,-0.0603,-0.0616,-0.0629,-0.0532,-0.0586,-0.0535,-0.0462,-0.0416,-0.0399,-0.0384,-0.0351,-0.0334,-0.0533,-0.0533,-0.0533,0,-0.0224,-0.0238,-0.0295,-0.0295,-0.0309,-0.0382,-0.0373,-0.04,-0.0459,-0.0461,-0.0494,-0.0509,-0.0546,-0.0511,-0.048,-0.0499,-0.0487,-0.0538,-0.0396,-0.0382,-0.0369,-0.0339,-0.0322,-0.0526,-0.0527,-0.0528,-0.0528,0,-0.0174,-0.0181,-0.0173,-0.0201,-0.0214,-0.0216,-0.0264,-0.0269,-0.0304,-0.0336,-0.031,-0.0349,-0.036,-0.0355,-0.0398,-0.0316,-0.0342,-0.0377,-0.045,-0.034,-0.0315,-0.03,-0.0516,-0.0518,-0.0521,-0.0522,0,0,-0.0102,-0.0135,-0.0129,-0.0133,-0.017,-0.018,-0.0162,-0.0173,-0.016,-0.0186,-0.0156,-0.0159,-0.0187,-0.02,-0.0235,-0.0201,-0.0096,-0.0247,-0.0248,-0.0224,0.0007,0.0015,0.0031,-0.0106,-0.0103,-0.0101,-0.0006,0,-0.0046,-0.0027,-0.0057,-0.0029,-0.0028,-0.0074,-0.0053,-0.0066,-0.0081,-0.0065,-0.0079,-0.0066,-0.0125,-0.0122,-0.009,-0.0099,-0.0053,-0.0119,-0.0096,-0.0096,-0.011,0.005,0.0138,0.0232,0.0008,0.0011,0.0012,0,0.0012,0.001,0.0044,0.0035,0.0034,0.0046,0.0056,0.0062,0.0072,0.0065,0.008,0.0055,0.0099,0.0035,0.0092,0.0053,0.0048,0.004,0.0043,0.001,-0.0059,0.0083,0.0266,0.0287,0.0035,0.0033,0.0031,0,0.008,0.0084,0.0112,0.0109,0.0093,0.0109,0.0103,0.0107,0.0116,0.0151,0.0168,0.02,0.0219,0.0233,0.0204,0.0161,0.0269,0.0204,0.021,0.0209,0.0267,0.0266,0.0464,0.0269,0.0269,0.0269,0.0268,0,0.0144,0.0167,0.0144,0.0157,0.0187,0.0161,0.0199,0.0198,0.0216,0.0246,0.0237,0.0277,0.0272,0.0309,0.0277,0.0308,0.0333,0.0263,0.0255,0.0317,0.0319,0.0319,0.0258,0.0272,0.0271,0.0271,0.027,0,0.0215,0.0205,0.0226,0.0218,0.0217,0.0237,0.0235,0.0256,0.0272,0.0319,0.0336,0.0367,0.042,0.0411,0.0445,0.0407,0.0443,0.042,0.0487,0.0485,0.0488,0.0428,0.0524,0.0551,0.0459,0.0461,0.0461,0,0.0252,0.027,0.0268,0.0268,0.0264,0.0279,0.0284,0.0287,0.0305,0.0369,0.0398,0.0469,0.0517,0.0579,0.0569,0.0573,0.0512,0.0617,0.0549,0.055,0.0478,0.0407,0.0417,0.0685,0.0688,0.069,0.0692,0,0.0302,0.0302,0.0307,0.0306,0.0311,0.0323,0.0332,0.0358,0.0374,0.0433,0.0509,0.0564,0.0638,0.072,0.0727,0.0702,0.0643,0.0658,0.0672,0.0698,0.0626,0.0627,0.0535,0.0711,0.0709,0.0708,0.0707,0.0706,0.0325,0.0333,0.0322,0.0319,0.0333,0.035,0.0365,0.0398,0.0455,0.0543,0.06,0.0736,0.0851,0.089,0.0843,0.0868,0.0759,0.0857,0.0794,0.073,0.0744,0.0684,0.0829,0.0828,0.0826,0.0826,0.0825,0,0.0314,0.0312,0.0321,0.0318,0.033,0.0337,0.0374,0.0396,0.0472,0.0629,0.0725,0.0984,0.1086,0.1113,0.1166,0.108,0.0994,0.1005,0.0963,0.0971,0.0969,0.097,0.114,0.114,0.114,0.114,0.114,0.1139,0.0298,0.0288,0.0284,0.0289,0.0302,0.0314,0.0336,0.0404,0.0517,0.0754,0.0968,0.1129,0.1355,0.131,0.131,0.1233,0.114,0.1055,0.0995,0.102,0.1002,0.0985,0.098,0.1149,0.1149,0.1075,0.1074,0.1074]}],[{"header":{"parameterUnit":"m.s-1","parameterCategory":2,"la1":30.2991,"la2":30.254,"lo1":-89.0895,"lo2":-89.0444,"dy":0.0017,"dx":0.0017,"nx":28,"ny":28,"refTime":"2024-03-25T09:00:00:Z","depth":"2","parameterNumber":2,"parameterNumberName":"U-component_of_CURRENTS"},"data":[0,0,0,0,0,0,0,0,0,0,0,0,0,0,0,0,0,0,0,0,0,0,0,0,0,0,0,0,0,0,0,0,0,0,0,0,0,0,0,0,0,0,0,0,0,0,0,0,0,0,0,0,0,0,0,0,0,0,0.1338,0.1338,0,0.1341,0.1342,0.1342,0.133,0.1329,0.1329,0.1328,0.1402,0.1404,0.1407,0,0,0,0,0,0,0,0,0,0,0,0,0,0.1431,0.1429,0.1338,0.1338,0.1337,0.1341,0.1342,0.1343,0.133,0.1329,0.1328,0.1327,0.1401,0.1404,0.1407,0,0,0,0,0,0,0,0,0,0,0,0,0,0.1413,0.1429,0.1338,0.1328,0.1327,0.1341,0.1342,0.1343,0.1331,0.1329,0.1328,0.1327,0.14,0.1404,0.1408,0.1459,0,0,0.1421,0.1422,0,0,0,0,0,0,0,0,0.1414,0.141,0.133,0.1329,0.1327,0.1329,0.1401,0.1383,0.1331,0.1335,0.1328,0.1326,0.1382,0.1387,0.1397,0.1463,0.1466,0.1421,0.1423,0.1425,0.1426,0,0,0,0,0,0,0,0.1415,0.1411,0.1345,0.1329,0.1328,0.136,0.1356,0.1399,0.1371,0.1334,0.1332,0.1324,0.1382,0.1393,0.1399,0.1467,0.1421,0.1425,0.1427,0.1429,0.1687,0.1691,0,0,0,0,0,0,0.1399,0.1411,0.1345,0.1345,0.1362,0.1359,0.1354,0.1334,0.1369,0.1371,0.1325,0.1324,0.1387,0.1394,0.1402,0.1573,0.1425,0.1429,0.1432,0.1683,0.1688,0.1693,0,0,0,0,0,0,0.1401,0.1393,0.1345,0.1375,0.137,0.1357,0.1336,0.1335,0.1378,0.136,0.1364,0.1371,0.1386,0.1396,0.1471,0.1572,0.1431,0.1435,0.1678,0.1684,0.169,0.1847,0,0,0,0,0,0,0.1404,0.1393,0.1407,0.1373,0.1367,0.1393,0.1337,0.1336,0.137,0.1369,0.1401,0.1404,0.1386,0.1465,0.1475,0.1575,0.1438,0.1672,0.1681,0.1688,0.1836,0.1858,0.1877,0,0,0,0,0,0.1407,0.1415,0.1407,0.14,0.1374,0.1395,0.1399,0.1388,0.1374,0.1419,0.1429,0.1405,0.1525,0.1472,0.1483,0.1586,0.1668,0.1678,0.1688,0.1827,0.1854,0.1876,0,0,0,0,0,0,0.1489,0.1412,0.1403,0.1396,0.1416,0.1392,0.143,0.1421,0.1464,0.1475,0.1451,0.1458,0.157,0.1557,0.1498,0.1686,0.1598,0.1611,0.1701,0.1726,0.1746,0.1751,0.1441,0,0,0,0,0,0.1505,0.1489,0.1449,0.147,0.1472,0.1466,0.1482,0.148,0.1492,0.1511,0.1537,0.157,0.1618,0.165,0.1694,0.179,0.1772,0.1868,0.1889,0.1905,0.192,0.1976,0.2002,0.1725,0.1725,0.1725,0,0,0.1559,0.151,0.1513,0.1487,0.15,0.1538,0.1476,0.1521,0.1576,0.1516,0.1631,0.1652,0.1661,0.1769,0.1819,0.177,0.1977,0.1918,0.1932,0.1937,0.1989,0.2016,0.2039,0.1732,0.1731,0.1729,0,0,0.1642,0.1606,0.162,0.1631,0.1637,0.1632,0.1655,0.1669,0.1698,0.1791,0.177,0.1852,0.1923,0.1958,0.1975,0.214,0.2086,0.2158,0.2264,0.232,0.2342,0.2361,0.237,0.2389,0.2163,0.2164,0.2164,0,0.1724,0.1706,0.1649,0.1672,0.1694,0.1681,0.1738,0.1774,0.1827,0.1857,0.1856,0.1989,0.2021,0.2122,0.2186,0.2191,0.2179,0.2165,0.2344,0.2363,0.238,0.2384,0.2403,0.2173,0.2172,0.2171,0.217,0,0.1801,0.1813,0.1836,0.1844,0.1873,0.1929,0.1939,0.2003,0.2036,0.2058,0.2184,0.223,0.2296,0.2342,0.2318,0.2464,0.2402,0.2364,0.2274,0.2417,0.2412,0.2429,0.2185,0.2182,0.2179,0.2177,0,0,0.1929,0.1893,0.1913,0.1917,0.1961,0.1976,0.2084,0.2144,0.2189,0.2293,0.2366,0.2506,0.2516,0.2539,0.2542,0.2605,0.274,0.2545,0.2544,0.2539,0.2825,0.2612,0.2608,0.2718,0.2722,0.2726,0.277,0,0.2029,0.205,0.2035,0.2123,0.2131,0.2152,0.2235,0.2292,0.2343,0.2418,0.2488,0.2574,0.2591,0.2629,0.2711,0.2714,0.2792,0.2729,0.27,0.2699,0.248,0.2625,0.2417,0.2424,0.2786,0.2789,0.279,0,0.211,0.2094,0.2162,0.2171,0.2188,0.2267,0.234,0.2411,0.2499,0.2537,0.2637,0.2662,0.2795,0.2779,0.2905,0.2852,0.2879,0.2883,0.2884,0.264,0.2517,0.2343,0.244,0.2817,0.2815,0.2813,0.2811,0,0.2136,0.2184,0.222,0.2238,0.2271,0.2335,0.2385,0.2466,0.2508,0.2618,0.265,0.2781,0.2839,0.292,0.2936,0.2938,0.3011,0.3009,0.2851,0.2833,0.2629,0.2585,0.3134,0.3134,0.3133,0.3133,0.3133,0,0.2192,0.2228,0.2238,0.2254,0.2324,0.2353,0.245,0.2502,0.2586,0.2615,0.2719,0.2739,0.288,0.2911,0.2953,0.2916,0.3035,0.2895,0.2848,0.2674,0.2636,0.2946,0.2924,0.3135,0.3135,0.3134,0.3134,0,0.221,0.2221,0.2249,0.2297,0.2328,0.2379,0.2472,0.2505,0.2597,0.2637,0.2675,0.2742,0.2773,0.2846,0.2932,0.2898,0.2903,0.2863,0.2614,0.2537,0.2698,0.2684,0.2745,0.2738,0.2733,0.2728,0.2724,0,0.2212,0.2224,0.2268,0.2281,0.2323,0.2397,0.2431,0.2519,0.2538,0.259,0.2584,0.264,0.2602,0.2614,0.2595,0.261,0.2751,0.2408,0.2404,0.2719,0.2668,0.2663,0.2657,0.2212,0.2204,0.2197,0.2192,0,0.221,0.2238,0.2235,0.2248,0.2292,0.2323,0.238,0.2381,0.2439,0.245,0.2395,0.2369,0.2363,0.2226,0.2216,0.2216,0.2389,0.2271,0.27,0.2305,0.2209,0.216,0.2174,0.2135,0.2141,0.2145,0.2148,0.215,0.2208,0.2187,0.2166,0.2179,0.2217,0.2198,0.2164,0.2179,0.2149,0.2083,0.212,0.1959,0.1987,0.1804,0.1782,0.1802,0.2003,0.1962,0.1986,0.2017,0.191,0.1805,0.1635,0.1638,0.164,0.1642,0.1644,0,0.2121,0.2094,0.2086,0.2046,0.2019,0.2119,0.2068,0.1974,0.185,0.1813,0.1728,0.1422,0.1309,0.1376,0.1301,0.133,0.1395,0.1311,0.1391,0.1447,0.1497,0.1369,0.0948,0.0946,0.0944,0.0942,0,0,0.2061,0.1962,0.1921,0.1828,0.186,0.1742,0.1691,0.1581,0.1484,0.1294,0.1151,0.115,0.1211,0.0971,0.1031,0.0972,0.1207,0.0944,0.1499,0.1643,0.1691,0.1864,0.1727,0,0,0,0,0]},{"header":{"parameterUnit":"m.s-1","parameterCategory":2,"la1":30.2991,"la2":30.254,"lo1":-89.0895,"lo2":-89.0444,"dy":0.0017,"dx":0.0017,"nx":28,"ny":28,"refTime":"2024-03-25T09:00:00:Z","depth":"2","parameterNumber":3,"parameterNumberName":"V-component_of_CURRENTS"},"data":[0,0,0,0,0,0,0,0,0,0,0,0,0,0,0,0,0,0,0,0,0,0,0,0,0,0,0,0,0,0,0,0,0,0,0,0,0,0,0,0,0,0,0,0,0,0,0,0,0,0,0,0,0,0,0,0,0,0,0.0686,0.0686,0,0.0662,0.0662,0.0662,0.0634,0.0634,0.0634,0.0633,0.0595,0.0594,0.0594,0,0,0,0,0,0,0,0,0,0,0,0,0,0.0646,0.0647,0.0686,0.0686,0.0686,0.0662,0.0662,0.0661,0.0634,0.0634,0.0634,0.0633,0.0595,0.0595,0.0594,0,0,0,0,0,0,0,0,0,0,0,0,0,0.0646,0.0647,0.0687,0.067,0.0669,0.0662,0.0662,0.0661,0.0635,0.0634,0.0634,0.0633,0.0596,0.0595,0.0594,0.0597,0,0,0.059,0.059,0,0,0,0,0,0,0,0,0.0646,0.0648,0.0673,0.0671,0.067,0.0652,0.0633,0.0639,0.0635,0.0647,0.0633,0.0633,0.0614,0.0611,0.0607,0.0595,0.0593,0.059,0.059,0.0589,0.0589,0,0,0,0,0,0,0,0.0646,0.0648,0.0676,0.0673,0.0671,0.0642,0.0642,0.0634,0.0632,0.0646,0.0644,0.0643,0.0612,0.0608,0.0605,0.0593,0.059,0.0589,0.0589,0.0588,0.061,0.0611,0,0,0,0,0,0,0.0655,0.0649,0.0677,0.0675,0.0657,0.0644,0.0644,0.0657,0.0633,0.0629,0.0643,0.0641,0.061,0.0607,0.0604,0.0616,0.0589,0.0588,0.0587,0.0609,0.061,0.0612,0,0,0,0,0,0,0.0655,0.0659,0.0678,0.0661,0.0661,0.0646,0.066,0.0657,0.064,0.0631,0.0626,0.0628,0.0609,0.0606,0.061,0.0614,0.0588,0.0587,0.0607,0.0609,0.0611,0.0634,0,0,0,0,0,0,0.0654,0.0659,0.0663,0.0662,0.0663,0.0678,0.0661,0.0657,0.0641,0.0638,0.0617,0.0614,0.0609,0.0612,0.0609,0.0612,0.0586,0.0606,0.0608,0.061,0.0632,0.0636,0.064,0,0,0,0,0,0.0653,0.0666,0.0663,0.0666,0.0672,0.0678,0.0676,0.0661,0.0641,0.0641,0.0636,0.0614,0.0624,0.0612,0.0608,0.0611,0.0605,0.0608,0.061,0.063,0.0635,0.064,0,0,0,0,0,0,0.0644,0.0665,0.0662,0.0678,0.0679,0.0674,0.0668,0.0655,0.0648,0.0638,0.0627,0.0624,0.0634,0.0623,0.061,0.0628,0.0611,0.0614,0.0628,0.0633,0.0637,0.0659,0.0585,0,0,0,0,0,0.0647,0.0665,0.0673,0.0683,0.0684,0.0671,0.0666,0.0656,0.0653,0.0647,0.0636,0.0631,0.0645,0.0638,0.0646,0.0645,0.065,0.0648,0.0653,0.0656,0.0674,0.0694,0.0702,0.0621,0.0621,0.0621,0,0,0.0645,0.0657,0.0666,0.0682,0.0677,0.0694,0.0667,0.0659,0.0672,0.0645,0.0651,0.0646,0.0652,0.0666,0.0668,0.0652,0.0681,0.066,0.0662,0.0679,0.0698,0.0705,0.0712,0.0623,0.0622,0.0622,0,0,0.0659,0.0662,0.0685,0.0691,0.069,0.0691,0.0689,0.068,0.0674,0.068,0.0677,0.0687,0.0675,0.07,0.0708,0.0742,0.071,0.0722,0.0749,0.0768,0.0774,0.078,0.0787,0.0794,0.0715,0.0715,0.0715,0,0.0647,0.0689,0.0687,0.071,0.0718,0.0695,0.0716,0.0716,0.0708,0.0717,0.0686,0.0713,0.0707,0.0756,0.0763,0.0754,0.0743,0.0724,0.0773,0.0779,0.0785,0.079,0.0797,0.0716,0.0716,0.0716,0.0716,0,0.0688,0.0713,0.0723,0.0756,0.0763,0.0771,0.0778,0.0776,0.0755,0.0762,0.0786,0.0783,0.0798,0.0794,0.0782,0.0822,0.0795,0.0781,0.0756,0.0794,0.0798,0.0804,0.0718,0.0718,0.0717,0.0717,0,0,0.0674,0.0741,0.074,0.0768,0.0785,0.0796,0.0819,0.0846,0.0864,0.0852,0.0888,0.0901,0.0879,0.0889,0.0872,0.0882,0.0902,0.0833,0.0834,0.0835,0.0922,0.0848,0.0847,0.0876,0.0877,0.0879,0.0904,0,0.07,0.0769,0.0785,0.0834,0.0873,0.0863,0.0887,0.0903,0.0909,0.0937,0.0945,0.0961,0.0921,0.0905,0.0919,0.0924,0.0922,0.0896,0.0891,0.0891,0.0816,0.0854,0.0841,0.0856,0.091,0.0911,0.0912,0,0.0732,0.0781,0.0842,0.0893,0.0901,0.0909,0.0941,0.0955,0.0995,0.0991,0.1014,0.1018,0.1054,0.0991,0.1023,0.0996,0.0956,0.0947,0.0948,0.088,0.083,0.0831,0.0866,0.0923,0.0922,0.0921,0.0921,0,0.0746,0.0812,0.0866,0.0883,0.0935,0.0933,0.0934,0.0965,0.0982,0.1014,0.1039,0.1078,0.1091,0.1076,0.1052,0.1025,0.1077,0.1043,0.0944,0.0938,0.0931,0.0921,0.1045,0.1045,0.1045,0.1045,0.1045,0,0.0781,0.0816,0.0867,0.0896,0.0932,0.0937,0.0958,0.0965,0.0988,0.1047,0.1049,0.1115,0.1105,0.1137,0.1091,0.105,0.1105,0.0965,0.0946,0.0936,0.0927,0.0989,0.0982,0.1046,0.1046,0.1046,0.1046,0,0.0793,0.0833,0.0894,0.094,0.0945,0.0955,0.0955,0.0986,0.0983,0.1063,0.107,0.1147,0.1181,0.1167,0.1165,0.1095,0.1063,0.1017,0.0996,0.0973,0.09,0.0894,0.0926,0.0924,0.0922,0.092,0.0919,0,0.081,0.0849,0.0916,0.0946,0.0956,0.0966,0.0985,0.0975,0.1019,0.1107,0.1171,0.1214,0.1288,0.1252,0.1139,0.1045,0.1038,0.0929,0.0874,0.0913,0.0891,0.0889,0.0885,0.088,0.0878,0.0877,0.0876,0,0.0844,0.0859,0.0914,0.0974,0.0999,0.1042,0.1061,0.1104,0.1134,0.1217,0.1346,0.1402,0.1343,0.1263,0.108,0.1009,0.0945,0.0895,0.098,0.0891,0.0865,0.0845,0.0845,0.0865,0.0866,0.0867,0.0867,0.0868,0.0853,0.089,0.0953,0.1008,0.1047,0.1113,0.1167,0.1216,0.1306,0.1421,0.1478,0.1519,0.1388,0.1146,0.1,0.0816,0.0855,0.0781,0.0788,0.0795,0.0764,0.0734,0.0704,0.0704,0.0704,0.0704,0.0704,0,0.0877,0.0917,0.0982,0.1062,0.1134,0.1119,0.123,0.1279,0.1411,0.1502,0.1587,0.1423,0.1298,0.1116,0.0829,0.0676,0.0679,0.0615,0.0666,0.0679,0.069,0.0655,0.0565,0.0564,0.0562,0.0561,0,0,0.0891,0.096,0.1003,0.113,0.1171,0.1271,0.1347,0.139,0.1458,0.1531,0.1533,0.1546,0.1334,0.1085,0.0896,0.0728,0.0736,0.0687,0.0821,0.092,0.0932,0.0812,0.0774,0,0,0,0,0]}],[{"header":{"parameterUnit":"m.s-1","parameterCategory":2,"la1":30.2991,"la2":30.254,"lo1":-89.0895,"lo2":-89.0444,"dy":0.0017,"dx":0.0017,"nx":28,"ny":28,"refTime":"2024-03-25T09:00:00:Z","depth":"4","parameterNumber":2,"parameterNumberName":"U-component_of_CURRENTS"},"data":[0,0,0,0,0,0,0,0,0,0,0,0,0,0,0,0,0,0,0,0,0,0,0,0,0,0,0,0,0,0,0,0,0,0,0,0,0,0,0,0,0,0,0,0,0,0,0,0,0,0,0,0,0,0,0,0,0,0,0.0276,0.0276,0,0.0311,0.0311,0.0311,0.0324,0.0324,0.0324,0.0325,0.0371,0.0372,0.0373,0,0,0,0,0,0,0,0,0,0,0,0,0,0.0168,0.017,0.0275,0.0276,0.0277,0.0311,0.0311,0.0311,0.0324,0.0324,0.0325,0.0325,0.0371,0.0372,0.0373,0,0,0,0,0,0,0,0,0,0,0,0,0,0.0207,0.017,0.0275,0.0289,0.0291,0.0311,0.0311,0.0311,0.0324,0.0324,0.0325,0.0325,0.037,0.0372,0.0374,0.038,0,0,0.0379,0.0379,0,0,0,0,0,0,0,0,0.0205,0.0211,0.0287,0.0289,0.0291,0.0316,0.029,0.0336,0.0324,0.0309,0.0325,0.0325,0.0355,0.0358,0.036,0.0382,0.0384,0.0379,0.038,0.038,0.0381,0,0,0,0,0,0,0,0.0203,0.0209,0.0287,0.0287,0.029,0.0277,0.0283,0.0298,0.0328,0.031,0.0312,0.032,0.0356,0.0359,0.0362,0.0385,0.0379,0.038,0.0381,0.0382,0.0465,0.0466,0,0,0,0,0,0,0.0207,0.0207,0.0286,0.0288,0.0251,0.0279,0.0285,0.0305,0.0328,0.0333,0.032,0.0321,0.0356,0.036,0.0363,0.0426,0.038,0.0382,0.0383,0.0464,0.0465,0.0467,0,0,0,0,0,0,0.0204,0.0214,0.0284,0.025,0.0258,0.0281,0.0303,0.0306,0.0316,0.0336,0.034,0.0328,0.0356,0.0361,0.0388,0.0426,0.0383,0.0384,0.0463,0.0464,0.0466,0.0518,0,0,0,0,0,0,0.0201,0.0213,0.0225,0.0251,0.026,0.0296,0.0303,0.0307,0.0322,0.0323,0.0345,0.0349,0.0356,0.0385,0.0389,0.0428,0.0386,0.0461,0.0463,0.0465,0.0515,0.0521,0.0527,0,0,0,0,0,0.0197,0.0209,0.0225,0.0235,0.0278,0.0296,0.0299,0.0313,0.0322,0.0324,0.0346,0.0348,0.0403,0.0387,0.0392,0.0432,0.046,0.0463,0.0465,0.0512,0.052,0.0527,0,0,0,0,0,0,0.0163,0.0213,0.0231,0.0257,0.0277,0.0299,0.0306,0.0317,0.0335,0.0343,0.0358,0.0363,0.0403,0.0405,0.0388,0.0462,0.0435,0.0438,0.0469,0.0476,0.0482,0.0491,0.0387,0,0,0,0,0,0.0164,0.0193,0.0228,0.025,0.0263,0.0287,0.0296,0.0309,0.0331,0.0338,0.0358,0.0384,0.0416,0.0435,0.0453,0.049,0.049,0.0521,0.0527,0.0532,0.0542,0.0589,0.0601,0.0476,0.0476,0.0476,0,0,0.0158,0.019,0.0206,0.0245,0.0265,0.0287,0.0292,0.0313,0.0337,0.0342,0.0379,0.0402,0.0428,0.0473,0.0492,0.0483,0.056,0.0535,0.054,0.0547,0.0593,0.0606,0.0617,0.0478,0.0477,0.0477,0,0,0.0156,0.019,0.0211,0.0232,0.0268,0.0286,0.0295,0.0326,0.0345,0.0382,0.0401,0.0444,0.0482,0.0517,0.0539,0.0589,0.0587,0.06,0.0647,0.0693,0.0703,0.0713,0.0696,0.0704,0.0609,0.0609,0.0609,0,0.0144,0.0184,0.0215,0.0239,0.0262,0.0289,0.0312,0.0335,0.0371,0.04,0.0399,0.0484,0.0507,0.0577,0.0607,0.0605,0.0612,0.0617,0.0702,0.0711,0.072,0.0701,0.0709,0.0612,0.0612,0.0611,0.0611,0,0.0158,0.0192,0.0205,0.0255,0.0278,0.0301,0.0343,0.0369,0.0402,0.0437,0.0505,0.0539,0.0595,0.0616,0.0635,0.072,0.0694,0.0699,0.0683,0.0736,0.0712,0.0719,0.0616,0.0615,0.0614,0.0614,0,0,0.0123,0.02,0.0205,0.0236,0.0291,0.0312,0.0359,0.0415,0.0459,0.0502,0.0567,0.0638,0.0668,0.0695,0.0723,0.0775,0.0841,0.0778,0.078,0.0761,0.0907,0.0837,0.0838,0.0873,0.0875,0.0877,0.0852,0,0.0124,0.0173,0.0215,0.0263,0.0292,0.0341,0.0387,0.0444,0.0496,0.0563,0.0621,0.0691,0.0694,0.074,0.0792,0.0841,0.0869,0.0844,0.0859,0.0858,0.0792,0.0848,0.0885,0.0858,0.0859,0.0861,0.0862,0,0.0123,0.0159,0.0208,0.0286,0.0305,0.0342,0.0427,0.0475,0.0573,0.0621,0.0696,0.074,0.0831,0.0825,0.0909,0.0898,0.091,0.0928,0.0928,0.0854,0.0805,0.0802,0.0875,0.0874,0.0873,0.0872,0.0871,0,0.0086,0.0155,0.0199,0.0223,0.0311,0.0352,0.0406,0.0498,0.0557,0.0672,0.073,0.0813,0.0874,0.0918,0.0958,0.0951,0.103,0.1013,0.0939,0.0931,0.0975,0.0966,0.1061,0.1061,0.1061,0.1062,0.1062,0,0.0074,0.0106,0.019,0.0214,0.0272,0.0346,0.0424,0.049,0.0601,0.0676,0.0768,0.0822,0.0914,0.0963,0.0978,0.0979,0.1038,0.0955,0.0939,0.099,0.0983,0.0978,0.0968,0.106,0.1061,0.1061,0.1061,0,0.0035,0.0088,0.0138,0.0229,0.026,0.0308,0.0429,0.0482,0.0601,0.07,0.0746,0.0857,0.0915,0.0963,0.1027,0.0997,0.101,0.0987,0.101,0.0994,0.086,0.0854,0.0893,0.0891,0.0889,0.0887,0.0886,0,0.0019,0.0041,0.0134,0.0162,0.0209,0.0289,0.034,0.0468,0.0525,0.0698,0.0732,0.0838,0.0893,0.0915,0.0964,0.0966,0.0957,0.094,0.093,0.0872,0.0853,0.085,0.0846,0.0883,0.0882,0.0882,0.0881,0,-0.0023,0.0016,0.0061,0.0118,0.0174,0.0232,0.0318,0.0358,0.0506,0.0621,0.0716,0.0774,0.0828,0.0862,0.0882,0.088,0.095,0.092,0.0923,0.0914,0.086,0.0842,0.0841,0.0875,0.0876,0.0876,0.0877,0,-0.0058,-0.0041,0.0015,0.0072,0.0123,0.0158,0.0219,0.0302,0.0385,0.0583,0.0596,0.0717,0.0809,0.0815,0.0828,0.0835,0.0813,0.0784,0.0794,0.0802,0.0789,0.0709,0.0676,0,0,0,0,0,-0.0097,-0.0078,-0.0041,0.0019,0.0067,0.0096,0.019,0.0255,0.0394,0.0444,0.0533,0.0587,0.0655,0.0698,0.0684,0.0749,0.0787,0.0727,0.0751,0.0838,0.0846,0.0842,0,0,0,0,0,0,-0.0121,-0.0095,-0.0063,-0.0043,-0.0019,0.0027,0.0078,0.0176,0.0213,0.0364,0.0397,0.0528,0.0583,0.0649,0.0663,0.0676,0.0675,0.0799,0.0797,0.0834,0.0841,0.0847,0.0846,0,0,0,0,0]},{"header":{"parameterUnit":"m.s-1","parameterCategory":2,"la1":30.2991,"la2":30.254,"lo1":-89.0895,"lo2":-89.0444,"dy":0.0017,"dx":0.0017,"nx":28,"ny":28,"refTime":"2024-03-25T09:00:00:Z","depth":"4","parameterNumber":3,"parameterNumberName":"V-component_of_CURRENTS"},"data":[0,0,0,0,0,0,0,0,0,0,0,0,0,0,0,0,0,0,0,0,0,0,0,0,0,0,0,0,0,0,0,0,0,0,0,0,0,0,0,0,0,0,0,0,0,0,0,0,0,0,0,0,0,0,0,0,0,0,0.057,0.0571,0,0.0592,0.0593,0.0593,0.0617,0.0617,0.0617,0.0618,0.0627,0.0627,0.0627,0,0,0,0,0,0,0,0,0,0,0,0,0,0.0543,0.0543,0.057,0.0571,0.0571,0.0592,0.0593,0.0593,0.0617,0.0617,0.0617,0.0618,0.0627,0.0627,0.0627,0,0,0,0,0,0,0,0,0,0,0,0,0,0.0559,0.0543,0.057,0.0585,0.0587,0.0592,0.0593,0.0593,0.0616,0.0617,0.0617,0.0618,0.0627,0.0627,0.0627,0.0617,0,0,0.0627,0.0627,0,0,0,0,0,0,0,0,0.0558,0.056,0.0583,0.0584,0.0586,0.0602,0.0586,0.06,0.0616,0.0605,0.0618,0.0618,0.0617,0.0618,0.0621,0.0617,0.0618,0.0627,0.0627,0.0627,0.0627,0,0,0,0,0,0,0,0.0557,0.0559,0.0579,0.0583,0.0585,0.0588,0.0591,0.0589,0.0608,0.0606,0.0608,0.061,0.0618,0.0621,0.0622,0.0618,0.0627,0.0627,0.0627,0.0627,0.0598,0.0598,0,0,0,0,0,0,0.0553,0.0558,0.0579,0.058,0.0573,0.0589,0.0592,0.0597,0.0609,0.0611,0.061,0.0611,0.0621,0.0622,0.0622,0.0625,0.0627,0.0627,0.0627,0.0599,0.0598,0.0597,0,0,0,0,0,0,0.0553,0.0555,0.0578,0.0569,0.0572,0.0589,0.0594,0.0597,0.0609,0.0611,0.0613,0.0619,0.0622,0.0622,0.0622,0.0625,0.0627,0.0626,0.06,0.0599,0.0598,0.0622,0,0,0,0,0,0,0.0552,0.0555,0.056,0.0569,0.0573,0.0581,0.0593,0.0597,0.0608,0.0611,0.062,0.0621,0.0622,0.0622,0.0622,0.0625,0.0626,0.0601,0.0599,0.0598,0.0622,0.0622,0.0622,0,0,0,0,0,0.0551,0.0555,0.056,0.0563,0.0578,0.0581,0.0583,0.0596,0.0608,0.061,0.0617,0.0621,0.0613,0.0622,0.0622,0.0625,0.0601,0.06,0.0598,0.0623,0.0622,0.0622,0,0,0,0,0,0,0.0547,0.0558,0.0564,0.0572,0.0576,0.0585,0.059,0.0599,0.0607,0.0614,0.0617,0.0618,0.0617,0.0612,0.0621,0.0609,0.0606,0.0604,0.0624,0.0624,0.0624,0.0626,0.0626,0,0,0,0,0,0.0547,0.0554,0.0561,0.0568,0.0571,0.0582,0.0587,0.0596,0.0603,0.0608,0.0613,0.0613,0.0608,0.061,0.0604,0.0602,0.0578,0.0599,0.0599,0.0599,0.0599,0.0562,0.0558,0.0592,0.0592,0.0592,0,0,0.0547,0.0555,0.0559,0.0568,0.0574,0.0578,0.0586,0.0596,0.0603,0.0606,0.0617,0.0614,0.0606,0.0603,0.0602,0.0603,0.0575,0.0597,0.0598,0.0597,0.056,0.0556,0.0554,0.0591,0.0591,0.0591,0,0,0.0548,0.0558,0.0562,0.0565,0.0575,0.0581,0.0584,0.0595,0.0604,0.061,0.0612,0.0606,0.0608,0.0599,0.0595,0.0586,0.0573,0.0587,0.0595,0.056,0.0557,0.0554,0.0514,0.0508,0.059,0.059,0.059,0,0.0548,0.0557,0.0563,0.0566,0.0574,0.0582,0.059,0.0594,0.0605,0.0609,0.0615,0.0602,0.0602,0.0588,0.0594,0.0587,0.0566,0.0603,0.0561,0.0558,0.0555,0.0514,0.0506,0.0591,0.0591,0.0591,0.0591,0,0.0548,0.0558,0.056,0.057,0.0576,0.0584,0.0591,0.0596,0.061,0.0615,0.0609,0.0599,0.0592,0.059,0.0598,0.0576,0.0567,0.0565,0.0567,0.0553,0.051,0.0502,0.0593,0.0592,0.0592,0.0592,0,0,0.0543,0.0559,0.0562,0.0573,0.0583,0.0591,0.0596,0.0604,0.0613,0.0608,0.0607,0.06,0.0598,0.0592,0.0588,0.0566,0.0532,0.0568,0.0566,0.0537,0.0452,0.0464,0.0456,0.053,0.0529,0.0528,0.0429,0,0.0544,0.0559,0.0567,0.0584,0.0593,0.0602,0.0611,0.0618,0.0622,0.0619,0.0598,0.0601,0.0597,0.0604,0.0574,0.0548,0.0513,0.0559,0.0461,0.0458,0.0478,0.0448,0.0524,0.0423,0.0421,0.042,0.0419,0,0.0542,0.0555,0.0577,0.0604,0.061,0.0629,0.0648,0.0661,0.0651,0.0651,0.063,0.0615,0.0584,0.0583,0.0503,0.0537,0.0497,0.0466,0.0461,0.046,0.0456,0.0439,0.0404,0.0405,0.0406,0.0407,0.0408,0,0.0541,0.0563,0.0589,0.0596,0.0622,0.0646,0.0674,0.0682,0.0706,0.0683,0.0687,0.0624,0.0611,0.0542,0.0489,0.0498,0.0395,0.039,0.0348,0.0348,0.0357,0.0361,0.0317,0.0317,0.0317,0.0318,0.0318,0,0.0538,0.0558,0.06,0.0612,0.0657,0.0678,0.0726,0.0731,0.075,0.0771,0.0722,0.0696,0.0606,0.0541,0.0477,0.0391,0.0377,0.0339,0.0322,0.0368,0.0374,0.0351,0.0356,0.0314,0.0315,0.0316,0.0316,0,0.0533,0.0555,0.0587,0.0633,0.0661,0.0703,0.0788,0.0814,0.0831,0.0849,0.0849,0.0759,0.0664,0.057,0.0448,0.0389,0.03,0.0272,0.0325,0.0313,0.0272,0.028,0.0195,0.0195,0.0195,0.0194,0.0194,0,0.0527,0.0545,0.0611,0.0648,0.0682,0.0755,0.0806,0.0854,0.0881,0.0877,0.0873,0.0792,0.072,0.0539,0.0434,0.0292,0.0283,0.0228,0.0249,0.0267,0.0259,0.0267,0.0275,0.0193,0.0193,0.0193,0.0193,0,0.0517,0.0552,0.0588,0.0666,0.0732,0.0798,0.0875,0.0892,0.0933,0.0952,0.0888,0.0795,0.0676,0.0523,0.0428,0.0324,0.0258,0.0224,0.0223,0.0243,0.0264,0.0258,0.0266,0.0192,0.0192,0.0192,0.0192,0,0.0519,0.055,0.061,0.0686,0.0767,0.0823,0.0853,0.0887,0.0921,0.0923,0.0886,0.0772,0.0704,0.0537,0.044,0.0353,0.0323,0.0291,0.0287,0.0287,0.0354,0.0397,0.0342,0,0,0,0,0,0.051,0.0563,0.0626,0.0711,0.0793,0.0848,0.0894,0.0911,0.094,0.0908,0.0912,0.0805,0.0646,0.0547,0.0461,0.042,0.0301,0.0314,0.026,0.0185,0.0187,0.0253,0,0,0,0,0,0,0.0507,0.0574,0.0622,0.0729,0.0799,0.0887,0.0914,0.0921,0.0894,0.09,0.0802,0.0803,0.0629,0.072,0.0473,0.0443,0.0396,0.0252,0.025,0.0185,0.0186,0.0187,0.0256,0,0,0,0,0]}]]